Powrót do katalogu

COSMOS 2251 DEB

AktywnyLEO
NORAD 47062·DEBRIS·🇷🇺 Russia

Wystrzelony Jun 16, 1993 z Plesetsk Cosmodrome

Loading…

Następne Przeloty (najbliższe 24 godziny)

TLE

ŚwieżeSource: Space-Track

Epoka: Sep 14, 2026, 13:53 UTC

1 47062U 93036BXS 26257.57901799  .00000538  00000-0  41800-3 0  9991
2 47062  74.0825 342.9524 0323832  44.3099  17.6328 13.72608791593868

Śledź COSMOS 2251 DEB w czasie rzeczywistym z AllMySat

Download on the App Store